• în România
  • Lista ţărilor
  • Pe 7 zile
  • Temperatura apei
  • Hartă satelitară
  • Meteo pe hartă
  • Widget-uri
  • user-avatar
    Intrare

    Meteo pe oră la Naydenka

    Astăzi, 22 Septembrie, Sâmbătă

    Timp Temperatura Precipitaţii Vânt Presiune Umiditate
    00:00 +16°C° 0 mm 2 m/s 746 mmHg 94%
    01:00 +16°C° 0 mm 2 m/s 746 mmHg 95%
    02:00 +16°C° 0 mm 2 m/s 745 mmHg 96%
    03:00 +16°C° 0 mm 2 m/s 745 mmHg 96%
    04:00 +16°C° 0 mm 3 m/s 745 mmHg 95%
    05:00 +16°C° 0 mm 3 m/s 745 mmHg 95%
    06:00 +17°C° 0 mm 3 m/s 744 mmHg 91%
    07:00 +17°C° 0 mm 4 m/s 744 mmHg 87%
    08:00 +18°C° 0 mm 4 m/s 744 mmHg 82%
    09:00 +20°C° 0 mm 5 m/s 743 mmHg 74%
    10:00 +21°C° 0 mm 5 m/s 743 mmHg 66%
    11:00 +23°C° 0 mm 6 m/s 742 mmHg 57%
    12:00 +23°C° 0 mm 6 m/s 742 mmHg 55%
    13:00 +24°C° 0 mm 6 m/s 741 mmHg 52%
    14:00 +24°C° 0 mm 6 m/s 741 mmHg 49%
    15:00 +23°C° 0 mm 5 m/s 740 mmHg 54%
    16:00 +22°C° 0 mm 5 m/s 740 mmHg 58%
    17:00 +21°C° 0 mm 4 m/s 740 mmHg 63%
    18:00 +19°C° 0.4 mm 4 m/s 740 mmHg 72%
    19:00 +17°C° 0.4 mm 3 m/s 740 mmHg 80%
    20:00 +14°C° 0.4 mm 3 m/s 740 mmHg 89%
    21:00 +13°C° 0.1 mm 3 m/s 740 mmHg 89%
    22:00 +12°C° 0.1 mm 3 m/s 740 mmHg 90%
    23:00 +12°C° 0.1 mm 2 m/s 740 mmHg 90%

    Mâine, 23 Septembrie, Duminică

    Timp Temperatura Precipitaţii Vânt Presiune Umiditate
    00:00 +12°C° 0.4 mm 2 m/s 740 mmHg 91%
    01:00 +12°C° 0.4 mm 2 m/s 740 mmHg 91%
    02:00 +10°C° 0.4 mm 3 m/s 740 mmHg 91%
    03:00 +10°C° 1 mm 2 m/s 740 mmHg 92%
    04:00 +10°C° 1 mm 2 m/s 740 mmHg 93%
    05:00 +10°C° 1 mm 2 m/s 740 mmHg 94%
    06:00 +10°C° 0.6 mm 2 m/s 740 mmHg 93%
    07:00 +10°C° 0.6 mm 2 m/s 740 mmHg 93%
    08:00 +10°C° 0.6 mm 2 m/s 739 mmHg 92%
    09:00 +10°C° 0.2 mm 3 m/s 739 mmHg 90%
    10:00 +11°C° 0.2 mm 3 m/s 740 mmHg 87%
    11:00 +11°C° 0.2 mm 3 m/s 740 mmHg 85%
    12:00 +12°C° 0.2 mm 3 m/s 739 mmHg 80%
    13:00 +12°C° 0.2 mm 4 m/s 739 mmHg 76%
    14:00 +13°C° 0.2 mm 4 m/s 739 mmHg 71%
    15:00 +12°C° 0.1 mm 3 m/s 739 mmHg 74%
    16:00 +11°C° 0.1 mm 3 m/s 739 mmHg 77%
    17:00 +12°C° 0.1 mm 2 m/s 739 mmHg 80%
    18:00 +10°C° 0 mm 2 m/s 739 mmHg 83%
    19:00 +9°C° 0 mm 2 m/s 739 mmHg 85%
    20:00 +9°C° 0 mm 2 m/s 739 mmHg 87%
    21:00 +8°C° 0 mm 2 m/s 739 mmHg 89%
    22:00 +8°C° 0 mm 2 m/s 739 mmHg 90%
    23:00 +7°C° 0 mm 3 m/s 739 mmHg 92%

    Poimâine, 24 Septembrie, Luni

    Timp Temperatura Precipitaţii Vânt Presiune Umiditate
    00:00 +7°C° 0 mm 3 m/s 739 mmHg 93%
    01:00 +7°C° 0 mm 3 m/s 739 mmHg 94%
    02:00 +7°C° 0 mm 2 m/s 739 mmHg 95%
    03:00 +7°C° 0 mm 3 m/s 739 mmHg 95%
    04:00 +7°C° 0 mm 3 m/s 739 mmHg 95%
    05:00 +5°C° 0 mm 3 m/s 739 mmHg 96%
    06:00 +7°C° 0 mm 3 m/s 739 mmHg 93%
    07:00 +7°C° 0 mm 3 m/s 739 mmHg 91%
    08:00 +8°C° 0 mm 3 m/s 739 mmHg 89%
    09:00 +9°C° 0 mm 2 m/s 739 mmHg 86%
    10:00 +9°C° 0 mm 2 m/s 739 mmHg 82%
    11:00 +10°C° 0 mm 2 m/s 739 mmHg 79%
    12:00 +10°C° 0.1 mm 2 m/s 739 mmHg 78%
    13:00 +12°C° 0.1 mm 2 m/s 738 mmHg 77%
    14:00 +12°C° 0.1 mm 1 m/s 738 mmHg 76%
    15:00 +10°C° 0.4 mm 2 m/s 738 mmHg 81%
    16:00 +10°C° 0.4 mm 2 m/s 737 mmHg 86%
    17:00 +9°C° 0.4 mm 2 m/s 737 mmHg 91%
    18:00 +9°C° 1 mm 2 m/s 736 mmHg 92%
    19:00 +8°C° 1 mm 3 m/s 735 mmHg 93%
    20:00 +8°C° 1 mm 3 m/s 735 mmHg 94%
    21:00 +7°C° 1.2 mm 4 m/s 734 mmHg 94%
    22:00 +7°C° 1.2 mm 5 m/s 733 mmHg 93%
    23:00 +7°C° 1.2 mm 5 m/s 732 mmHg 93%

    25 Septembrie, Marţi

    Timp Temperatura Precipitaţii Vânt Presiune Umiditate
    00:00 +7°C° 1.7 mm 6 m/s 732 mmHg 93%
    01:00 +5°C° 1.7 mm 6 m/s 731 mmHg 92%
    02:00 +5°C° 1.7 mm 7 m/s 731 mmHg 91%
    03:00 +5°C° 1.2 mm 7 m/s 731 mmHg 91%
    04:00 +5°C° 1.2 mm 7 m/s 731 mmHg 90%
    05:00 +5°C° 1.2 mm 7 m/s 731 mmHg 90%
    06:00 +5°C° 0.7 mm 7 m/s 732 mmHg 89%
    07:00 +5°C° 0.7 mm 7 m/s 732 mmHg 89%
    08:00 +5°C° 0.7 mm 7 m/s 733 mmHg 88%
    09:00 +5°C° 0.4 mm 7 m/s 733 mmHg 86%
    10:00 +5°C° 0.4 mm 7 m/s 734 mmHg 85%
    11:00 +5°C° 0.4 mm 7 m/s 735 mmHg 83%
    12:00 +6°C° 0.1 mm 7 m/s 736 mmHg 79%
    13:00 +6°C° 0.1 mm 7 m/s 737 mmHg 74%
    14:00 +6°C° 0.1 mm 7 m/s 737 mmHg 70%
    15:00 +7°C° 0 mm 6 m/s 738 mmHg 71%
    16:00 +5°C° 0 mm 6 m/s 739 mmHg 72%
    17:00 +5°C° 0 mm 6 m/s 740 mmHg 72%
    18:00 +5°C° 0 mm 6 m/s 741 mmHg 72%
    19:00 +5°C° 0 mm 5 m/s 742 mmHg 72%
    20:00 +5°C° 0 mm 5 m/s 742 mmHg 72%
    21:00 +3°C° 0 mm 5 m/s 743 mmHg 71%
    22:00 +2°C° 0 mm 5 m/s 743 mmHg 71%
    23:00 +1°C° 0 mm 5 m/s 743 mmHg 70%

    26 Septembrie, Miercuri

    Timp Temperatura Precipitaţii Vânt Presiune Umiditate
    00:00 +1°C° 0 mm 4 m/s 743 mmHg 72%
    01:00 +1°C° 0 mm 4 m/s 743 mmHg 73%
    02:00 +1°C° 0 mm 3 m/s 744 mmHg 75%
    03:00 +2°C° 0.1 mm 3 m/s 743 mmHg 78%
    04:00 +1°C° 0.1 mm 4 m/s 743 mmHg 82%
    05:00 +3°C° 0.1 mm 4 m/s 743 mmHg 86%
    06:00 +4°C° 0.2 mm 4 m/s 743 mmHg 85%
    07:00 +4°C° 0.2 mm 4 m/s 742 mmHg 84%
    08:00 +5°C° 0.2 mm 4 m/s 742 mmHg 83%
    09:00 +6°C° 0.1 mm 4 m/s 742 mmHg 78%
    10:00 +7°C° 0.1 mm 4 m/s 742 mmHg 72%
    11:00 +8°C° 0.1 mm 4 m/s 742 mmHg 67%
    12:00 +8°C° 0.1 mm 4 m/s 742 mmHg 64%
    13:00 +8°C° 0.1 mm 4 m/s 742 mmHg 62%
    14:00 +10°C° 0.1 mm 4 m/s 741 mmHg 59%
    15:00 +9°C° 0 mm 3 m/s 741 mmHg 65%
    16:00 +8°C° 0 mm 3 m/s 741 mmHg 71%
    17:00 +7°C° 0 mm 2 m/s 740 mmHg 76%
    18:00 +6°C° 0.1 mm 2 m/s 740 mmHg 80%
    19:00 +5°C° 0.1 mm 3 m/s 739 mmHg 83%
    20:00 +5°C° 0.1 mm 3 m/s 739 mmHg 86%
    21:00 +5°C° 0.8 mm 3 m/s 737 mmHg 89%
    22:00 +5°C° 0.8 mm 4 m/s 736 mmHg 91%
    23:00 +5°C° 0.8 mm 4 m/s 735 mmHg 93%

    27 Septembrie, Joi

    Timp Temperatura Precipitaţii Vânt Presiune Umiditate
    00:00 +6°C° 1.8 mm 5 m/s 734 mmHg 93%
    01:00 +7°C° 1.8 mm 5 m/s 733 mmHg 93%
    02:00 +7°C° 1.8 mm 5 m/s 732 mmHg 93%
    03:00 +8°C° 0.7 mm 5 m/s 731 mmHg 92%
    04:00 +9°C° 0.7 mm 5 m/s 731 mmHg 92%
    05:00 +9°C° 0.7 mm 5 m/s 730 mmHg 92%
    06:00 +9°C° 0.5 mm 5 m/s 731 mmHg 89%
    07:00 +9°C° 0.5 mm 5 m/s 731 mmHg 86%
    08:00 +8°C° 0.5 mm 5 m/s 731 mmHg 83%
    09:00 +9°C° 0 mm 5 m/s 732 mmHg 77%
    10:00 +9°C° 0 mm 5 m/s 732 mmHg 70%
    11:00 +9°C° 0 mm 5 m/s 733 mmHg 64%
    12:00 +10°C° 0.1 mm 5 m/s 733 mmHg 63%
    13:00 +11°C° 0.1 mm 4 m/s 733 mmHg 63%
    14:00 +11°C° 0.1 mm 4 m/s 733 mmHg 63%
    15:00 +10°C° 0.2 mm 4 m/s 732 mmHg 69%
    16:00 +9°C° 0.2 mm 3 m/s 732 mmHg 76%
    17:00 +8°C° 0.2 mm 3 m/s 731 mmHg 82%
    18:00 +8°C° 0.3 mm 3 m/s 731 mmHg 85%
    19:00 +8°C° 0.3 mm 3 m/s 731 mmHg 88%
    20:00 +7°C° 0.3 mm 3 m/s 731 mmHg 91%
    21:00 +8°C° 0.1 mm 3 m/s 730 mmHg 91%
    22:00 +8°C° 0.1 mm 3 m/s 730 mmHg 91%
    23:00 +8°C° 0.1 mm 3 m/s 730 mmHg 91%
    Arată mai mult